GSAT0209 (GALILEO 12) (41174 NORAD) Tracking and Keplerian Element Data

This shows tracking and keplerian element data for the satellite.

Feedback or suggestion? Click here.




ElementValue
Catalog41174
NameGSAT0209 (GALILEO 12)
Epoch Orbit5626
Epoch Day33.85606084
Epoch Year2025
RAAN114.9749
Inclination55.5354
Eccentricity0.0003546
Argument of Perigee312.5335
Mean Anonmoly47.4873
Mean Motion1.70474623
Decay Rate-2E-08
L11 41174U 15079A 25033.85606084 -.00000002 00000+0 00000+0 0 9990
L22 41174 55.5354 114.9749 0003546 312.5335 47.4873 1.70474623 56267



Live tracking and technical data element details for GSAT0209 (GALILEO 12) (NORAD 41174). GSAT0209 (GALILEO 12) can be tracked NOW for your location showing map with azimuth and elevation plus other details from your city location.







IsCatalogInMostPopularTable: catalog: 41174, numindb: 690
Update: records affected: 1



GetName: 41174 GSAT0209 (GALILEO 12)

Hit Count: updated at: Wed, 18 Jun 2025 05:48:36 GMT